contact:dominique.lefevre@mio.osupytheas.fr, maurice.libes@osupytheas.fr, didier.mallarino@osupytheas.fr
Project:EMSO http://www.emso-fr.org/EMSO-France
Depth: 2436.0 m
Title:EMSO Ligure Ouest : Data MII capteur CSTAR
DateTime,Latitude,Longitude,Instrument_Serial,Reference_Counts,Signal_Counts,Corrected_Signal_raw_counts,Calculated_Beam_c_inverse_meters,Internal_thermistor_counts
DateTime,Latitude,Longitude,Instrument_Serial,Reference_Counts,Signal_Counts,Corrected_Signal_raw_counts,Calculated_Beam_c_inverse_meters,Internal_thermistor_counts
2019-10-04T00:02:36,42.805,6.029,CST-1368DR,7693,10775,15352,0.068,551
2019-10-04T00:05:37,42.805,6.029,CST-1368DR,7693,10773,15350,0.069,551
2019-10-04T00:08:39,42.805,6.029,CST-1368DR,7692,10599,15103,0.134,551
2019-10-04T00:11:41,42.805,6.029,CST-1368DR,7693,10773,15349,0.069,550
2019-10-04T00:14:42,42.805,6.029,CST-1368DR,7693,10774,15351,0.068,551
2019-10-04T00:17:44,42.805,6.029,CST-1368DR,7693,10773,15349,0.069,551
2019-10-04T00:20:46,42.805,6.029,CST-1368DR,7693,10774,15351,0.068,551
2019-10-04T00:23:47,42.805,6.029,CST-1368DR,7693,10774,15351,0.068,551
2019-10-04T00:26:49,42.805,6.029,CST-1368DR,7692,10682,15222,0.102,551
2019-10-04T00:29:51,42.805,6.029,CST-1368DR,7693,10775,15353,0.068,550
2019-10-04T00:32:52,42.805,6.029,CST-1368DR,7693,10775,15352,0.068,550
2019-10-04T00:35:54,42.805,6.029,CST-1368DR,7693,10774,15351,0.068,550
2019-10-04T00:38:55,42.805,6.029,CST-1368DR,7693,10771,15346,0.070,550
2019-10-04T00:41:57,42.805,6.029,CST-1368DR,7693,10771,15347,0.070,551
2019-10-04T00:44:59,42.805,6.029,CST-1368DR,7693,10772,15348,0.069,550
2019-10-04T00:48:00,42.805,6.029,CST-1368DR,7693,10774,15351,0.068,551
2019-10-04T00:51:02,42.805,6.029,CST-1368DR,7693,10773,15350,0.069,551
2019-10-04T00:54:04,42.805,6.029,CST-1368DR,7693,10774,15352,0.068,551
2019-10-04T00:57:05,42.805,6.029,CST-1368DR,7693,10773,15350,0.069,551
2019-10-04T01:00:07,42.805,6.029,CST-1368DR,7693,10773,15350,0.069,551
2019-10-04T01:03:09,42.805,6.029,CST-1368DR,7693,10775,15352,0.068,550
2019-10-04T01:06:10,42.805,6.029,CST-1368DR,7693,10774,15351,0.068,551
2019-10-04T01:09:12,42.805,6.029,CST-1368DR,7693,10775,15352,0.068,551
2019-10-04T01:12:14,42.805,6.029,CST-1368DR,7693,10776,15353,0.068,551
2019-10-04T01:15:15,42.805,6.029,CST-1368DR,7693,10774,15351,0.068,551
2019-10-04T01:18:17,42.805,6.029,CST-1368DR,7693,10773,15350,0.069,551
2019-10-04T01:21:18,42.805,6.029,CST-1368DR,7693,10773,15349,0.069,551
2019-10-04T01:24:20,42.805,6.029,CST-1368DR,7693,10774,15351,0.068,551
2019-10-04T01:27:22,42.805,6.029,CST-1368DR,7693,10774,15351,0.068,551
2019-10-04T01:30:23,42.805,6.029,CST-1368DR,7693,10772,15348,0.069,551
2019-10-04T01:33:25,42.805,6.029,CST-1368DR,7690,10393,14814,0.211,551
2019-10-04T01:36:27,42.805,6.029,CST-1368DR,7693,10774,15351,0.068,551
2019-10-04T01:39:28,42.805,6.029,CST-1368DR,7693,10774,15352,0.068,551
2019-10-04T01:42:30,42.805,6.029,CST-1368DR,7693,10774,15352,0.068,551
2019-10-04T01:45:32,42.805,6.029,CST-1368DR,7693,10773,15350,0.069,551
2019-10-04T01:48:34,42.805,6.029,CST-1368DR,7693,10772,15348,0.069,551
2019-10-04T01:51:35,42.805,6.029,CST-1368DR,7692,10771,15348,0.069,551
2019-10-04T01:54:37,42.805,6.029,CST-1368DR,7692,10770,15348,0.069,551
2019-10-04T01:57:39,42.805,6.029,CST-1368DR,7692,10773,15351,0.068,551
2019-10-04T02:00:40,42.805,6.029,CST-1368DR,7692,10774,15352,0.068,551
2019-10-04T02:03:42,42.805,6.029,CST-1368DR,7692,10773,15352,0.068,551
2019-10-04T02:06:44,42.805,6.029,CST-1368DR,7692,10772,15350,0.069,551
2019-10-04T02:09:45,42.805,6.029,CST-1368DR,7692,10771,15349,0.069,551
2019-10-04T02:12:47,42.805,6.029,CST-1368DR,7692,10767,15343,0.071,551
2019-10-04T02:15:49,42.805,6.029,CST-1368DR,7692,10770,15347,0.070,551
2019-10-04T02:18:50,42.805,6.029,CST-1368DR,7692,10771,15348,0.069,550
2019-10-04T02:21:52,42.805,6.029,CST-1368DR,7692,10772,15350,0.069,551
2019-10-04T02:24:53,42.805,6.029,CST-1368DR,7692,10736,15298,0.082,551
2019-10-04T02:27:55,42.805,6.029,CST-1368DR,7692,10774,15353,0.068,551
2019-10-04T02:30:57,42.805,6.029,CST-1368DR,7692,10773,15351,0.068,551
2019-10-04T02:33:58,42.805,6.029,CST-1368DR,7690,10575,15074,0.141,551
2019-10-04T02:37:00,42.805,6.029,CST-1368DR,7692,10773,15351,0.068,551
2019-10-04T02:40:02,42.805,6.029,CST-1368DR,7692,10774,15353,0.068,551
2019-10-04T02:43:03,42.805,6.029,CST-1368DR,7692,10772,15350,0.069,551
2019-10-04T02:46:05,42.805,6.029,CST-1368DR,7692,10773,15351,0.068,551
2019-10-04T02:49:07,42.805,6.029,CST-1368DR,7692,10771,15349,0.069,551
2019-10-04T02:52:08,42.805,6.029,CST-1368DR,7691,10478,14933,0.179,551
2019-10-04T02:55:10,42.805,6.029,CST-1368DR,7692,10773,15351,0.068,551
2019-10-04T02:58:11,42.805,6.029,CST-1368DR,7692,10773,15352,0.068,551
2019-10-04T03:01:13,42.805,6.029,CST-1368DR,7692,10773,15351,0.068,550
2019-10-04T03:04:15,42.805,6.029,CST-1368DR,7692,10770,15348,0.069,551
2019-10-04T03:07:16,42.805,6.029,CST-1368DR,7692,10772,15350,0.069,551
2019-10-04T03:10:18,42.805,6.029,CST-1368DR,7692,10772,15350,0.069,551
2019-10-04T03:13:20,42.805,6.029,CST-1368DR,7692,10772,15350,0.069,551
2019-10-04T03:16:21,42.805,6.029,CST-1368DR,7692,10773,15352,0.068,551
2019-10-04T03:19:23,42.805,6.029,CST-1368DR,7692,10771,15349,0.069,550
2019-10-04T03:22:24,42.805,6.029,CST-1368DR,7692,10770,15347,0.070,551
2019-10-04T03:25:26,42.805,6.029,CST-1368DR,7692,10772,15350,0.069,551
2019-10-04T03:28:28,42.805,6.029,CST-1368DR,7692,10772,15350,0.069,551
2019-10-04T03:31:29,42.805,6.029,CST-1368DR,7692,10772,15350,0.069,551
2019-10-04T03:34:31,42.805,6.029,CST-1368DR,7692,10771,15349,0.069,551
2019-10-04T03:37:33,42.805,6.029,CST-1368DR,7692,10773,15351,0.068,551
2019-10-04T03:40:35,42.805,6.029,CST-1368DR,7692,10774,15352,0.068,551
2019-10-04T03:43:36,42.805,6.029,CST-1368DR,7692,10770,15347,0.070,551
2019-10-04T03:46:38,42.805,6.029,CST-1368DR,7692,10772,15350,0.069,551
2019-10-04T03:49:39,42.805,6.029,CST-1368DR,7692,10772,15350,0.069,551
2019-10-04T03:52:41,42.805,6.029,CST-1368DR,7692,10771,15349,0.069,550
2019-10-04T03:55:43,42.805,6.029,CST-1368DR,7692,10771,15348,0.069,551
2019-10-04T03:58:45,42.805,6.029,CST-1368DR,7692,10772,15350,0.069,551
2019-10-04T04:01:46,42.805,6.029,CST-1368DR,7692,10772,15350,0.069,551
2019-10-04T04:04:48,42.805,6.029,CST-1368DR,7691,10772,15352,0.068,551
2019-10-04T04:07:49,42.805,6.029,CST-1368DR,7692,10773,15351,0.068,550
2019-10-04T04:10:51,42.805,6.029,CST-1368DR,7691,10773,15354,0.068,551
2019-10-04T04:13:53,42.805,6.029,CST-1368DR,7691,10773,15353,0.068,551
2019-10-04T04:16:54,42.805,6.029,CST-1368DR,7691,10773,15354,0.068,551
2019-10-04T04:19:56,42.805,6.029,CST-1368DR,7691,10772,15352,0.068,551
2019-10-04T04:22:58,42.805,6.029,CST-1368DR,7691,10773,15353,0.068,551
2019-10-04T04:25:59,42.805,6.029,CST-1368DR,7691,10772,15351,0.068,551
2019-10-04T04:29:01,42.805,6.029,CST-1368DR,7691,10771,15351,0.068,551
2019-10-04T04:32:02,42.805,6.029,CST-1368DR,7689,10378,14794,0.216,551
2019-10-04T04:35:04,42.805,6.029,CST-1368DR,7686,10262,14633,0.260,550
2019-10-04T04:38:06,42.805,6.029,CST-1368DR,7691,10768,15346,0.070,551
2019-10-04T04:41:07,42.805,6.029,CST-1368DR,7691,10770,15349,0.069,551
2019-10-04T04:44:09,42.805,6.029,CST-1368DR,7691,10772,15351,0.068,551
2019-10-04T04:47:11,42.805,6.029,CST-1368DR,7691,10772,15351,0.068,551
2019-10-04T04:50:12,42.805,6.029,CST-1368DR,7691,10770,15349,0.069,551
2019-10-04T04:53:14,42.805,6.029,CST-1368DR,7691,10772,15352,0.068,551
2019-10-04T04:56:16,42.805,6.029,CST-1368DR,7691,10772,15352,0.068,551
2019-10-04T04:59:17,42.805,6.029,CST-1368DR,7691,10770,15349,0.069,551
2019-10-04T05:02:19,42.805,6.029,CST-1368DR,7691,10771,15350,0.069,551
2019-10-04T05:05:21,42.805,6.029,CST-1368DR,7691,10762,15338,0.072,551
2019-10-04T05:08:22,42.805,6.029,CST-1368DR,7691,10772,15351,0.068,551
2019-10-04T05:11:24,42.805,6.029,CST-1368DR,7691,10773,15353,0.068,551
2019-10-04T05:14:26,42.805,6.029,CST-1368DR,7691,10772,15352,0.068,551
2019-10-04T05:17:27,42.805,6.029,CST-1368DR,7691,10772,15352,0.068,551
2019-10-04T05:20:29,42.805,6.029,CST-1368DR,7691,10773,15353,0.068,551
2019-10-04T05:23:31,42.805,6.029,CST-1368DR,7691,10772,15351,0.068,551
2019-10-04T05:26:32,42.805,6.029,CST-1368DR,7691,10771,15351,0.068,551
2019-10-04T05:29:34,42.805,6.029,CST-1368DR,7691,10771,15350,0.069,550
2019-10-04T05:32:35,42.805,6.029,CST-1368DR,7691,10769,15347,0.070,551
2019-10-04T05:35:37,42.805,6.029,CST-1368DR,7691,10770,15349,0.069,551
2019-10-04T05:38:39,42.805,6.029,CST-1368DR,7691,10769,15347,0.070,551
2019-10-04T05:41:40,42.805,6.029,CST-1368DR,7691,10770,15349,0.069,551
2019-10-04T05:44:42,42.805,6.029,CST-1368DR,7691,10770,15350,0.069,551
2019-10-04T05:47:44,42.805,6.029,CST-1368DR,7691,10771,15350,0.069,551
2019-10-04T05:50:45,42.805,6.029,CST-1368DR,7691,10769,15348,0.069,551
2019-10-04T05:53:47,42.805,6.029,CST-1368DR,7691,10771,15350,0.069,551
2019-10-04T05:56:49,42.805,6.029,CST-1368DR,7691,10768,15346,0.070,551
2019-10-04T05:59:50,42.805,6.029,CST-1368DR,7691,10768,15346,0.070,551
2019-10-04T06:02:52,42.805,6.029,CST-1368DR,7691,10772,15352,0.068,551
2019-10-04T06:05:54,42.805,6.029,CST-1368DR,7691,10771,15350,0.069,551
2019-10-04T06:08:55,42.805,6.029,CST-1368DR,7691,10771,15351,0.068,551
2019-10-04T06:11:57,42.805,6.029,CST-1368DR,7691,10770,15350,0.069,551
2019-10-04T06:14:59,42.805,6.029,CST-1368DR,7691,10771,15350,0.069,551
2019-10-04T06:18:00,42.805,6.029,CST-1368DR,7691,10770,15349,0.069,551
2019-10-04T06:21:02,42.805,6.029,CST-1368DR,7691,10770,15349,0.069,550
2019-10-04T06:24:04,42.805,6.029,CST-1368DR,7691,10769,15348,0.069,551
2019-10-04T06:27:05,42.805,6.029,CST-1368DR,7691,10770,15349,0.069,551
2019-10-04T06:30:07,42.805,6.029,CST-1368DR,7691,10769,15347,0.070,551
2019-10-04T06:33:08,42.805,6.029,CST-1368DR,7691,10768,15347,0.070,551
2019-10-04T06:36:10,42.805,6.029,CST-1368DR,7691,10768,15347,0.070,551
2019-10-04T06:39:12,42.805,6.029,CST-1368DR,7690,10769,15350,0.069,551
2019-10-04T06:42:13,42.805,6.029,CST-1368DR,7691,10769,15348,0.069,551
2019-10-04T06:45:15,42.805,6.029,CST-1368DR,7687,10341,14744,0.230,550
2019-10-04T06:48:17,42.805,6.029,CST-1368DR,7691,10770,15350,0.069,551
2019-10-04T06:51:18,42.805,6.029,CST-1368DR,7691,10771,15350,0.069,551
2019-10-04T06:54:20,42.805,6.029,CST-1368DR,7691,10770,15350,0.069,551
2019-10-04T06:57:22,42.805,6.029,CST-1368DR,7690,10763,15341,0.071,551
2019-10-04T07:00:23,42.805,6.029,CST-1368DR,7690,10769,15349,0.069,551
2019-10-04T07:03:25,42.805,6.029,CST-1368DR,7691,10769,15347,0.070,551
2019-10-04T07:06:26,42.805,6.029,CST-1368DR,7690,10770,15350,0.069,551
2019-10-04T07:09:28,42.805,6.029,CST-1368DR,7690,10769,15349,0.069,551
2019-10-04T07:12:30,42.805,6.029,CST-1368DR,7690,10771,15352,0.068,550
2019-10-04T07:15:31,42.805,6.029,CST-1368DR,7691,10770,15349,0.069,551
2019-10-04T07:18:33,42.805,6.029,CST-1368DR,7691,10771,15351,0.068,551
2019-10-04T07:21:35,42.805,6.029,CST-1368DR,7690,10770,15351,0.068,551
2019-10-04T07:24:36,42.805,6.029,CST-1368DR,7691,10772,15352,0.068,551
2019-10-04T07:27:38,42.805,6.029,CST-1368DR,7690,10771,15353,0.068,551
2019-10-04T07:30:40,42.805,6.029,CST-1368DR,7690,10771,15352,0.068,551
2019-10-04T07:33:41,42.805,6.029,CST-1368DR,7690,10771,15352,0.068,551
2019-10-04T07:36:43,42.805,6.029,CST-1368DR,7690,10770,15351,0.068,551
2019-10-04T07:39:44,42.805,6.029,CST-1368DR,7690,10771,15352,0.068,551
2019-10-04T07:42:46,42.805,6.029,CST-1368DR,7690,10771,15352,0.068,550
2019-10-04T07:45:48,42.805,6.029,CST-1368DR,7690,10769,15349,0.069,551
2019-10-04T07:48:49,42.805,6.029,CST-1368DR,7690,10769,15349,0.069,551
2019-10-04T07:51:51,42.805,6.029,CST-1368DR,7690,10770,15351,0.068,551
2019-10-04T07:54:53,42.805,6.029,CST-1368DR,7690,10763,15341,0.071,551
2019-10-04T07:57:54,42.805,6.029,CST-1368DR,7690,10770,15351,0.068,551
2019-10-04T08:00:56,42.805,6.029,CST-1368DR,7690,10770,15351,0.068,551
2019-10-04T08:03:58,42.805,6.029,CST-1368DR,7690,10770,15351,0.068,551
2019-10-04T08:06:59,42.805,6.029,CST-1368DR,7690,10769,15349,0.069,551
2019-10-04T08:10:01,42.805,6.029,CST-1368DR,7690,10768,15348,0.069,551
2019-10-04T08:13:02,42.805,6.029,CST-1368DR,7690,10769,15350,0.069,551
2019-10-04T08:16:04,42.805,6.029,CST-1368DR,7690,10769,15349,0.069,551
2019-10-04T08:19:06,42.805,6.029,CST-1368DR,7690,10768,15348,0.069,551
2019-10-04T08:22:07,42.805,6.029,CST-1368DR,7690,10770,15351,0.068,551
2019-10-04T08:25:09,42.805,6.029,CST-1368DR,7690,10770,15350,0.069,551
2019-10-04T08:28:11,42.805,6.029,CST-1368DR,7690,10767,15347,0.070,551
2019-10-04T08:31:12,42.805,6.029,CST-1368DR,7690,10770,15350,0.069,550
2019-10-04T08:34:14,42.805,6.029,CST-1368DR,7690,10735,15301,0.082,551
2019-10-04T08:37:16,42.805,6.029,CST-1368DR,7690,10769,15349,0.069,551
2019-10-04T08:40:17,42.805,6.029,CST-1368DR,7690,10769,15350,0.069,551
2019-10-04T08:43:19,42.805,6.029,CST-1368DR,7690,10762,15339,0.072,551
2019-10-04T08:46:20,42.805,6.029,CST-1368DR,7690,10769,15349,0.069,551
2019-10-04T08:49:22,42.805,6.029,CST-1368DR,7690,10770,15351,0.068,551
2019-10-04T08:52:24,42.805,6.029,CST-1368DR,7690,10769,15349,0.069,551
2019-10-04T08:55:25,42.805,6.029,CST-1368DR,7690,10764,15343,0.071,551
2019-10-04T08:58:27,42.805,6.029,CST-1368DR,7690,10767,15347,0.070,551
2019-10-04T09:01:29,42.805,6.029,CST-1368DR,7690,10766,15345,0.070,551
2019-10-04T09:04:30,42.805,6.029,CST-1368DR,7690,10763,15341,0.071,551
2019-10-04T09:07:32,42.805,6.029,CST-1368DR,7690,10768,15348,0.069,551
2019-10-04T09:10:33,42.805,6.029,CST-1368DR,7690,10768,15348,0.069,551
2019-10-04T09:13:35,42.805,6.029,CST-1368DR,7690,10763,15341,0.071,551
2019-10-04T09:16:37,42.805,6.029,CST-1368DR,7689,10770,15352,0.068,551
2019-10-04T09:19:38,42.805,6.029,CST-1368DR,7690,10767,15347,0.070,551
2019-10-04T09:22:40,42.805,6.029,CST-1368DR,7689,10767,15348,0.069,551
2019-10-04T09:25:42,42.805,6.029,CST-1368DR,7689,10767,15348,0.069,551
2019-10-04T09:28:43,42.805,6.029,CST-1368DR,7689,10769,15351,0.068,551
2019-10-04T09:31:45,42.805,6.029,CST-1368DR,7689,10768,15350,0.069,551
2019-10-04T09:34:46,42.805,6.029,CST-1368DR,7689,10766,15347,0.070,551
2019-10-04T09:37:48,42.805,6.029,CST-1368DR,7689,10767,15348,0.069,551
2019-10-04T09:40:50,42.805,6.029,CST-1368DR,7689,10769,15351,0.068,550
2019-10-04T09:43:51,42.805,6.029,CST-1368DR,7689,10766,15347,0.070,551
2019-10-04T09:46:53,42.805,6.029,CST-1368DR,7687,10600,15114,0.131,551
2019-10-04T09:49:55,42.805,6.029,CST-1368DR,7689,10764,15344,0.070,551
2019-10-04T09:52:56,42.805,6.029,CST-1368DR,7689,10766,15348,0.069,551
2019-10-04T09:55:58,42.805,6.029,CST-1368DR,7689,10768,15349,0.069,551
2019-10-04T09:58:59,42.805,6.029,CST-1368DR,7689,10766,15348,0.069,551
2019-10-04T10:02:01,42.805,6.029,CST-1368DR,7689,10767,15349,0.069,551
2019-10-04T10:05:03,42.805,6.029,CST-1368DR,7689,10767,15348,0.069,551
2019-10-04T10:08:04,42.805,6.029,CST-1368DR,7689,10768,15350,0.069,551
2019-10-04T10:11:06,42.805,6.029,CST-1368DR,7689,10768,15350,0.069,550
2019-10-04T10:14:08,42.805,6.029,CST-1368DR,7689,10768,15350,0.069,551
2019-10-04T10:17:09,42.805,6.029,CST-1368DR,7689,10769,15351,0.068,551
2019-10-04T10:20:11,42.805,6.029,CST-1368DR,7689,10768,15349,0.069,551
2019-10-04T10:23:13,42.805,6.029,CST-1368DR,7689,10768,15350,0.069,551
2019-10-04T10:26:14,42.805,6.029,CST-1368DR,7689,10766,15347,0.070,551
2019-10-04T10:29:16,42.805,6.029,CST-1368DR,7689,10769,15351,0.068,551
2019-10-04T10:32:18,42.805,6.029,CST-1368DR,7689,10769,15351,0.068,550
2019-10-04T10:35:19,42.805,6.029,CST-1368DR,7689,10768,15350,0.069,551
2019-10-04T10:38:21,42.805,6.029,CST-1368DR,7686,10602,15119,0.129,551
2019-10-04T10:41:22,42.805,6.029,CST-1368DR,7689,10768,15350,0.069,551
2019-10-04T10:44:24,42.805,6.029,CST-1368DR,7689,10769,15351,0.068,551
2019-10-04T10:47:26,42.805,6.029,CST-1368DR,7689,10769,15351,0.068,551
2019-10-04T10:50:27,42.805,6.029,CST-1368DR,7689,10767,15349,0.069,551
2019-10-04T10:53:29,42.805,6.029,CST-1368DR,7689,10767,15349,0.069,551
2019-10-04T10:56:31,42.805,6.029,CST-1368DR,7689,10762,15341,0.071,551
2019-10-04T10:59:32,42.805,6.029,CST-1368DR,7689,10763,15343,0.071,551
2019-10-04T11:02:34,42.805,6.029,CST-1368DR,7689,10768,15350,0.069,551
2019-10-04T11:05:36,42.805,6.029,CST-1368DR,7689,10765,15346,0.070,551
2019-10-04T11:08:37,42.805,6.029,CST-1368DR,7689,10768,15350,0.069,551
2019-10-04T11:11:39,42.805,6.029,CST-1368DR,7689,10728,15293,0.084,551
2019-10-04T11:14:40,42.805,6.029,CST-1368DR,7689,10768,15350,0.069,551
2019-10-04T11:17:42,42.805,6.029,CST-1368DR,7689,10769,15351,0.068,551
2019-10-04T11:20:44,42.805,6.029,CST-1368DR,7689,10768,15350,0.069,551
2019-10-04T11:23:45,42.805,6.029,CST-1368DR,7689,10767,15349,0.069,551
2019-10-04T11:26:47,42.805,6.029,CST-1368DR,7689,10766,15347,0.070,550
2019-10-04T11:29:49,42.805,6.029,CST-1368DR,7689,10767,15349,0.069,551
2019-10-04T11:32:50,42.805,6.029,CST-1368DR,7689,10766,15347,0.070,551
2019-10-04T11:35:52,42.805,6.029,CST-1368DR,7689,10767,15348,0.069,551
2019-10-04T11:38:54,42.805,6.029,CST-1368DR,7689,10767,15349,0.069,551
2019-10-04T11:41:55,42.805,6.029,CST-1368DR,7689,10764,15344,0.070,551
2019-10-04T11:44:57,42.805,6.029,CST-1368DR,7689,10769,15351,0.068,551
2019-10-04T11:47:58,42.805,6.029,CST-1368DR,7689,10768,15350,0.069,551
2019-10-04T11:51:00,42.805,6.029,CST-1368DR,7689,10760,15339,0.072,551
2019-10-04T11:54:02,42.805,6.029,CST-1368DR,7689,10743,15314,0.078,551
2019-10-04T11:57:03,42.805,6.029,CST-1368DR,7689,10766,15347,0.070,551
2019-10-04T12:00:05,42.805,6.029,CST-1368DR,7689,10767,15348,0.069,551
2019-10-04T12:03:07,42.805,6.029,CST-1368DR,7689,10768,15350,0.069,551
2019-10-04T12:06:08,42.805,6.029,CST-1368DR,7689,10768,15350,0.069,551
2019-10-04T12:09:10,42.805,6.029,CST-1368DR,7689,10765,15346,0.070,550
2019-10-04T12:12:11,42.805,6.029,CST-1368DR,7689,10765,15346,0.070,551
2019-10-04T12:15:13,42.805,6.029,CST-1368DR,7689,10768,15350,0.069,550
2019-10-04T12:18:15,42.805,6.029,CST-1368DR,7689,10768,15350,0.069,551
2019-10-04T12:21:16,42.805,6.029,CST-1368DR,7689,10768,15350,0.069,551
2019-10-04T12:24:18,42.805,6.029,CST-1368DR,7689,10765,15346,0.070,550
2019-10-04T12:27:20,42.805,6.029,CST-1368DR,7689,10768,15350,0.069,551
2019-10-04T12:30:21,42.805,6.029,CST-1368DR,7688,10768,15352,0.068,551
2019-10-04T12:33:23,42.805,6.029,CST-1368DR,7689,10766,15348,0.069,551
2019-10-04T12:36:24,42.805,6.029,CST-1368DR,7689,10769,15351,0.068,551
2019-10-04T12:39:26,42.805,6.029,CST-1368DR,7688,10767,15350,0.069,551
2019-10-04T12:42:28,42.805,6.029,CST-1368DR,7688,10767,15351,0.068,551
2019-10-04T12:45:30,42.805,6.029,CST-1368DR,7688,10765,15347,0.070,551
2019-10-04T12:48:31,42.805,6.029,CST-1368DR,7688,10767,15350,0.069,551
2019-10-04T12:51:33,42.805,6.029,CST-1368DR,7688,10765,15348,0.069,551
2019-10-04T12:54:35,42.805,6.029,CST-1368DR,7688,10767,15350,0.069,551
2019-10-04T12:57:36,42.805,6.029,CST-1368DR,7688,10766,15349,0.069,551
2019-10-04T13:00:38,42.805,6.029,CST-1368DR,7688,10767,15350,0.069,550
2019-10-04T13:03:39,42.805,6.029,CST-1368DR,7688,10766,15349,0.069,551
2019-10-04T13:06:41,42.805,6.029,CST-1368DR,7688,10766,15349,0.069,550
2019-10-04T13:09:43,42.805,6.029,CST-1368DR,7688,10762,15343,0.071,551
2019-10-04T13:12:44,42.805,6.029,CST-1368DR,7688,10767,15351,0.068,550
2019-10-04T13:15:46,42.805,6.029,CST-1368DR,7688,10765,15348,0.069,551
2019-10-04T13:18:48,42.805,6.029,CST-1368DR,7688,10765,15348,0.069,551
2019-10-04T13:21:49,42.805,6.029,CST-1368DR,7688,10767,15350,0.069,551
2019-10-04T13:24:51,42.805,6.029,CST-1368DR,7688,10766,15349,0.069,551
2019-10-04T13:27:52,42.805,6.029,CST-1368DR,7688,10765,15348,0.069,551
2019-10-04T13:30:54,42.805,6.029,CST-1368DR,7688,10759,15339,0.072,550
2019-10-04T13:33:56,42.805,6.029,CST-1368DR,7688,10765,15347,0.070,551
2019-10-04T13:36:57,42.805,6.029,CST-1368DR,7688,10764,15346,0.070,551
2019-10-04T13:39:59,42.805,6.029,CST-1368DR,7688,10765,15347,0.070,551
2019-10-04T13:43:01,42.805,6.029,CST-1368DR,7688,10763,15344,0.070,551
2019-10-04T13:46:03,42.805,6.029,CST-1368DR,7688,10764,15347,0.070,551
2019-10-04T13:49:04,42.805,6.029,CST-1368DR,7688,10763,15345,0.070,551
2019-10-04T13:52:06,42.805,6.029,CST-1368DR,7688,10765,15347,0.070,551
2019-10-04T13:55:07,42.805,6.029,CST-1368DR,7688,10762,15343,0.071,551
2019-10-04T13:58:09,42.805,6.029,CST-1368DR,7688,10763,15344,0.070,551
2019-10-04T14:01:11,42.805,6.029,CST-1368DR,7688,10762,15343,0.071,550
2019-10-04T14:04:12,42.805,6.029,CST-1368DR,7688,10764,15346,0.070,551
2019-10-04T14:07:14,42.805,6.029,CST-1368DR,7688,10764,15346,0.070,551
2019-10-04T14:10:16,42.805,6.029,CST-1368DR,7688,10763,15345,0.070,551
2019-10-04T14:13:17,42.805,6.029,CST-1368DR,7688,10763,15344,0.070,551
2019-10-04T14:16:19,42.805,6.029,CST-1368DR,7688,10762,15343,0.071,551
2019-10-04T14:19:21,42.805,6.029,CST-1368DR,7688,10763,15344,0.070,551
2019-10-04T14:22:22,42.805,6.029,CST-1368DR,7688,10763,15344,0.070,551
2019-10-04T14:25:24,42.805,6.029,CST-1368DR,7688,10764,15346,0.070,551
2019-10-04T14:28:26,42.805,6.029,CST-1368DR,7688,10766,15349,0.069,551
2019-10-04T14:31:27,42.805,6.029,CST-1368DR,7688,10765,15347,0.070,551
2019-10-04T14:34:29,42.805,6.029,CST-1368DR,7688,10765,15347,0.070,551
2019-10-04T14:37:31,42.805,6.029,CST-1368DR,7688,10761,15342,0.071,551
2019-10-04T14:40:32,42.805,6.029,CST-1368DR,7688,10764,15346,0.070,551
2019-10-04T14:43:34,42.805,6.029,CST-1368DR,7688,10763,15344,0.070,551
2019-10-04T14:46:36,42.805,6.029,CST-1368DR,7688,10763,15344,0.070,551
2019-10-04T14:49:37,42.805,6.029,CST-1368DR,7688,10764,15346,0.070,551
2019-10-04T14:52:39,42.805,6.029,CST-1368DR,7688,10764,15347,0.070,551
2019-10-04T14:55:41,42.805,6.029,CST-1368DR,7688,10763,15345,0.070,551
2019-10-04T14:58:42,42.805,6.029,CST-1368DR,7688,10764,15346,0.070,551
2019-10-04T15:01:44,42.805,6.029,CST-1368DR,7688,10764,15347,0.070,551
2019-10-04T15:04:46,42.805,6.029,CST-1368DR,7688,10764,15347,0.070,551
2019-10-04T15:07:47,42.805,6.029,CST-1368DR,7687,10764,15348,0.069,550
2019-10-04T15:10:49,42.805,6.029,CST-1368DR,7688,10765,15347,0.070,551
2019-10-04T15:13:50,42.805,6.029,CST-1368DR,7688,10763,15344,0.070,551
2019-10-04T15:16:52,42.805,6.029,CST-1368DR,7687,10763,15347,0.070,551
2019-10-04T15:19:54,42.805,6.029,CST-1368DR,7688,10764,15346,0.070,551
2019-10-04T15:22:55,42.805,6.029,CST-1368DR,7688,10755,15333,0.073,550
2019-10-04T15:25:57,42.805,6.029,CST-1368DR,7685,10605,15125,0.128,551
2019-10-04T15:28:59,42.805,6.029,CST-1368DR,7688,10764,15347,0.070,551
2019-10-04T15:32:00,42.805,6.029,CST-1368DR,7687,10762,15345,0.070,551
2019-10-04T15:35:02,42.805,6.029,CST-1368DR,7687,10759,15340,0.071,551
2019-10-04T15:38:03,42.805,6.029,CST-1368DR,7688,10764,15346,0.070,551
2019-10-04T15:41:05,42.805,6.029,CST-1368DR,7687,10764,15347,0.070,551
2019-10-04T15:44:07,42.805,6.029,CST-1368DR,7687,10759,15341,0.071,551
2019-10-04T15:47:08,42.805,6.029,CST-1368DR,7687,10764,15348,0.069,551
2019-10-04T15:50:10,42.805,6.029,CST-1368DR,7687,10763,15347,0.070,551
2019-10-04T15:53:12,42.805,6.029,CST-1368DR,7687,10764,15348,0.069,551
2019-10-04T15:56:13,42.805,6.029,CST-1368DR,7687,10765,15349,0.069,551
2019-10-04T15:59:15,42.805,6.029,CST-1368DR,7687,10763,15347,0.070,550
2019-10-04T16:02:16,42.805,6.029,CST-1368DR,7687,10765,15350,0.069,550
2019-10-04T16:05:18,42.805,6.029,CST-1368DR,7687,10762,15345,0.070,551
2019-10-04T16:08:20,42.805,6.029,CST-1368DR,7687,10765,15349,0.069,551
2019-10-04T16:11:21,42.805,6.029,CST-1368DR,7687,10764,15348,0.069,551
2019-10-04T16:14:23,42.805,6.029,CST-1368DR,7687,10762,15345,0.070,551
2019-10-04T16:17:25,42.805,6.029,CST-1368DR,7687,10765,15349,0.069,550
2019-10-04T16:20:26,42.805,6.029,CST-1368DR,7687,10764,15348,0.069,551
2019-10-04T16:23:28,42.805,6.029,CST-1368DR,7687,10763,15346,0.070,551
2019-10-04T16:26:29,42.805,6.029,CST-1368DR,7687,10762,15345,0.070,551
2019-10-04T16:29:31,42.805,6.029,CST-1368DR,7687,10763,15346,0.070,551
2019-10-04T16:32:33,42.805,6.029,CST-1368DR,7687,10763,15347,0.070,551
2019-10-04T16:35:34,42.805,6.029,CST-1368DR,7687,10763,15346,0.070,551
2019-10-04T16:38:36,42.805,6.029,CST-1368DR,7687,10762,15345,0.070,551